Location: Asis
(14.1331°N, 120.9056°E)
Time: 03:03:36
(UTC+00:00)

Cosmos 1850 Rocket - Pass Details

Date: 15 January 2026
Orbit: 749 x 781 km, 74.0° (Epoch: 17 February)

Event Time Altitude Azimuth Distance (km) Brightness Sun altitude
Rises 10:26:56 0° 359° (N) 3,252 7.1 -9.9°
Reaches altitude 10° 10:29:28 10° 7° (N) 2,327 6.2 -10.4°
Maximum altitude 10:34:23 39° 75° (ENE) 1,156 4.4 -11.6°
Drops below altitude 10° 10:39:18 10° 143° (SE) 2,327 6.3 -12.7°
Sets 10:41:49 0° 151° (SSE) 3,252 7.1 -13.3°
